Wind_Speed
6 5 4 4 5 4 3 3 3 4 5 5 6 6 6 7 7 8 8 9 10 10 9 9 8 8 7 7 7 7 7 7 7 7 7 7 7 7 7 7 7 7 7
7 7 7 7 7 7 6 5 4 3 2 3 3 3 4 5 5 6 6 7 7 8 8 8 8 7 6 6 6 6 6 6 6 5 5 5 5 5 5 5 6 7 7
8 8 8 9 9 9 8 7 6 5 4 3 3 3 3 4 4 5 5 6 6 7 7 7 7 7 6 5 4 4 4 4 4 4 4 3 3 3 4 5 5 6 6
9 9 10 11 11 10 10 9 8 7 6 5 5 5 5 5 6 6 6 6 6 6 6 7 6 6 6 5 4 3 3 3 2 2 2 2 2 2 3 4 5 5 5
10 11 12 13 12 12 11 10 9 9 8 7 7 7 8 8 8 8 8 8 8 8 8 7 7 6 5 5 4 4 3 2 1 1 1 1 1 2 3 4 5 5 5
11 12 13 13 13 12 11 11 11 10 10 10 10 11 11 11 11 11 11 11 10 10 10 10 9 8 7 7 6 5 5 4 3 2 2 3 3 3 4 5 5 5 5
12 13 13 13 13 12 12 12 12 13 13 13 13 14 14 15 15 14 14 14 13 13 13 13 12 11 11 10 9 9 8 8 7 6 5 5 5 5 5 6 6 6 6
13 14 14 14 14 14 14 15 15 15 15 16 16 16 17 17 17 17 17 17 16 16 16 16 16 15 14 14 13 12 12 12 11 11 10 8 8 7 7 7 8 8 8
14 15 16 17 16 17 17 18 18 19 18 19 19 19 19 20 20 20 20 20 19 19 19 19 19 19 18 17 17 16 15 15 15 15 14 13 12 11 10 10 10 10 10
16 17 18 19 20 21 21 22 22 22 22 22 22 22 22 22 22 22 22 22 22 22 22 22 22 21 21 20 20 20 18 18 17 18 18 17 16 15 14 13 13 13 12
17 19 20 23 24 25 26 27 27 27 27 26 26 25 24 24 24 23 23 23 23 23 23 23 23 23 22 22 22 21 20 20 19 19 19 19 18 18 18 18 17 16 16
19 21 23 24 27 28 30 31 31 31 31 31 30 29 28 27 25 25 25 25 24 24 23 23 23 23 23 23 22 22 22 21 20 20 20 20 20 19 20 20 20 20 20
23 24 25 27 29 30 31 32 32 32 33 34 34 33 32 30 28 27 27 25 25 24 24 24 24 23 23 23 23 23 23 22 21 20 20 19 20 20 20 21 22 22 23
26 27 28 30 31 33 33 34 34 34 35 35 36 34 35 33 31 29 28 26 25 24 24 25 25 24 24 24 24 22 22 21 21 20 20 20 19 20 20 20 21 23 23
28 29 31 31 33 34 35 36 35 36 37 36 37 36 35 34 32 31 30 28 27 26 25 26 25 25 25 25 24 23 23 22 22 22 21 20 20 20 19 19 19 21 22
30 31 32 33 35 36 36 36 36 37 37 37 36 37 36 36 34 33 31 29 28 27 26 26 25 25 25 24 24 23 23 22 22 22 21 21 21 20 20 19 20 21 22
31 32 35 36 37 37 36 37 36 35 35 37 36 36 36 35 35 34 33 29 28 27 26 25 24 25 24 24 23 23 22 22 21 21 20 20 19 19 18 18 18 19 20
33 34 37 38 38 36 35 36 36 35 34 35 34 33 34 34 33 32 30 27 26 25 25 24 24 24 23 23 23 22 21 21 20 19 18 17 17 17 16 16 17 17 19
36 37 38 39 39 38 37 38 36 36 36 33 30 30 30 29 30 29 29 25 23 23 23 23 23 23 23 23 22 22 21 20 19 18 17 16 15 15 15 15 15 16 17
38 39 40 39 40 40 39 39 38 36 34 30 27 26 26 26 26 25 26 24 22 21 22 22 23 23 23 23 22 22 21 21 20 18 17 15 14 14 14 14 14 15 16
42 42 43 42 41 40 40 38 35 33 32 28 25 22 20 21 22 22 23 23 22 21 21 22 23 23 23 23 23 23 22 22 21 20 18 16 15 14 14 15 15 15 16
44 44 45 45 43 41 39 38 35 34 31 27 23 21 20 19 20 21 22 23 22 23 23 23 24 24 24 25 25 24 24 23 23 21 20 18 17 16 16 16 16 17 17
44 44 45 45 44 42 40 37 35 34 33 29 26 24 23 23 22 22 22 23 23 24 24 25 26 26 27 27 27 27 26 25 25 24 22 21 20 18 17 17 17 18 19
41 42 43 43 42 40 38 37 37 36 34 33 30 28 27 26 26 25 25 25 25 26 26 27 27 28 29 29 29 29 29 27 27 26 25 23 22 21 19 19 19 20 20
36 38 39 40 40 40 39 39 39 39 38 36 35 34 32 30 30 29 29 29 29 29 29 29 30 31 31 32 32 32 31 30 29 29 28 26 25 23 22 22 21 21 21
37 39 40 41 42 43 43 44 44 43 42 42 41 40 39 37 36 35 35 35 34 34 33 33 33 33 34 35 35 35 34 33 32 31 30 29 28 27 25 24 23 23 23
Wind_Direction
274 276 285 294 301 311 329 356 24 48 58 58 52 43 36 34 31 29 28 29 30 31 34 38 43 50 58 65 69 71 71 70 73 78 84 89 96 101 104 110 118 123 126
271 277 282 288 294 300 305 315 327 345 13 33 37 30 21 15 12 11 10 12 15 16 20 24 29 35 43 52 59 65 70 71 71 72 78 85 92 101 110 118 126 133 136
273 280 284 288 290 294 297 301 304 307 315 327 337 339 340 339 339 340 342 345 351 357 2 8 14 20 26 32 41 48 57 65 67 68 72 82 98 113 125 133 141 148 150
282 285 286 288 290 292 294 296 297 299 300 303 305 305 306 308 311 313 315 317 321 328 336 345 354 1 9 15 18 22 31 44 56 60 68 86 124 151 160 156 155 161 166
292 291 288 289 291 293 293 293 292 292 293 292 292 291 291 293 295 296 298 299 301 305 311 318 324 331 338 346 350 350 351 358 13 352 308 252 209 195 193 187 178 175 176
301 296 291 290 291 292 291 290 288 288 288 287 287 286 286 287 287 286 286 287 288 291 294 298 302 304 306 308 311 312 313 312 311 301 287 272 255 234 219 210 201 195 194
302 297 293 291 289 289 288 286 285 285 285 285 284 284 285 284 284 283 282 281 280 282 284 287 289 290 289 289 291 292 293 294 294 292 286 279 271 260 244 234 221 212 210
300 296 294 292 290 289 288 287 285 284 284 284 283 282 282 282 282 282 280 279 277 278 279 281 283 283 283 282 282 283 285 286 287 286 285 279 273 268 260 251 241 230 222
298 296 295 294 294 293 292 290 288 286 284 283 282 282 281 279 278 278 277 276 276 275 275 277 278 279 279 280 279 278 278 280 282 283 284 282 276 269 265 257 251 243 234
300 297 296 295 295 293 292 292 289 286 284 282 282 281 280 278 275 275 275 275 274 273 272 273 274 276 277 277 277 276 276 276 277 277 278 279 277 271 266 261 256 251 244
297 295 295 297 296 295 293 292 288 286 284 282 280 279 279 278 274 273 272 272 272 271 271 271 271 273 274 275 276 276 275 276 277 275 274 275 276 272 268 263 258 254 250
295 294 293 295 296 294 292 290 287 286 284 281 279 278 276 275 273 272 270 269 270 269 268 268 269 271 271 272 273 275 274 275 277 274 273 273 274 272 268 264 260 257 254
296 295 294 296 298 297 295 294 291 290 288 282 278 276 274 271 268 269 268 266 267 267 266 265 265 267 268 269 271 272 272 272 273 273 270 270 271 271 269 266 260 259 258
297 297 297 297 297 295 297 295 294 292 289 285 278 275 272 266 264 265 264 263 263 263 263 263 263 263 264 265 266 267 268 268 268 271 271 270 271 272 271 269 264 262 261
298 297 296 297 297 297 299 300 296 293 290 288 281 275 270 263 259 259 259 259 259 260 261 262 262 263 262 262 262 262 262 264 265 268 269 269 269 271 271 271 267 265 266
296 297 298 299 300 301 304 303 303 298 296 292 286 274 268 262 258 256 256 257 256 256 259 261 263 263 261 260 260 260 261 262 263 264 266 267 268 269 269 269 271 272 269
294 297 298 299 301 303 306 306 304 303 301 296 288 275 266 260 257 255 256 256 255 254 257 259 261 261 260 259 258 258 258 260 261 261 262 264 266 268 269 268 270 272 270
294 296 298 300 301 303 305 307 309 308 305 299 288 275 264 256 253 252 251 252 251 251 253 255 256 256 255 255 255 255 256 257 257 258 259 261 263 266 268 270 271 271 270
293 295 296 298 301 303 306 309 310 310 307 301 292 277 260 251 247 244 246 247 248 249 251 252 252 251 251 250 251 252 251 252 252 254 255 256 260 264 267 270 272 272 271
291 294 296 298 302 303 306 309 312 313 310 302 294 284 264 251 244 243 243 246 250 250 251 251 249 247 246 246 246 246 246 246 247 249 251 252 256 261 266 271 274 275 274
292 294 296 297 300 302 304 308 313 313 311 306 298 288 275 254 246 245 248 249 250 251 251 249 246 244 244 243 243 242 242 243 245 246 247 250 254 259 266 273 278 279 278
291 292 295 295 297 299 302 305 309 308 308 305 299 293 287 273 257 252 252 251 251 251 252 250 246 243 243 242 241 241 241 243 244 244 246 250 255 260 266 272 277 280 279
288 291 292 292 293 296 298 301 303 305 305 302 296 290 285 279 267 261 257 254 253 254 253 250 247 244 242 241 241 240 241 243 244 244 247 251 254 259 265 272 277 280 280
288 290 291 291 291 292 293 296 298 300 300 297 291 287 283 278 273 265 258 257 257 258 256 252 249 246 242 240 241 241 242 243 246 247 247 250 254 258 264 271 276 279 281
292 292 292 291 290 290 291 292 293 293 292 290 287 284 280 276 271 267 261 257 257 257 257 254 251 248 244 241 240 241 242 243 245 249 251 251 255 259 265 270 275 279 281
295 294 292 292 290 289 289 289 288 288 286 284 282 279 275 271 268 265 260 257 256 255 255 253 251 249 246 244 242 242 241 242 244 247 252 255 257 260 264 268 272 276 280
Height
5910 5910 5910 5909 5909 5908 5907 5906 5905 5904 5903 5902 5902 5901 5901 5901 5900 5900 5900 5899 5899 5899 5898 5898 5897 5897 5896 5895 5895 5894 5894 5894 5893 5893 5893 5892 5892 5892 5892 5892 5892 5892 5893
5910 5909 5909 5909 5908 5908 5906 5905 5904 5903 5902 5902 5901 5901 5901 5900 5900 5900 5900 5899 5899 5899 5898 5898 5897 5897 5896 5895 5895 5894 5894 5894 5894 5894 5893 5893 5893 5893 5893 5893 5893 5893 5894
5909 5909 5908 5908 5907 5907 5906 5904 5903 5902 5901 5901 5901 5901 5900 5900 5900 5900 5899 5899 5899 5898 5898 5898 5897 5897 5896 5895 5895 5895 5894 5894 5894 5894 5894 5894 5893 5893 5893 5894 5894 5894 5894
5908 5908 5907 5907 5906 5905 5904 5903 5902 5901 5900 5900 5900 5900 5899 5899 5899 5899 5899 5898 5898 5898 5897 5897 5897 5896 5896 5895 5895 5894 5894 5894 5894 5894 5894 5894 5894 5894 5894 5894 5894 5894 5894
5907 5907 5906 5905 5905 5904 5903 5901 5901 5900 5899 5899 5898 5898 5898 5898 5898 5897 5897 5897 5897 5897 5896 5896 5896 5896 5895 5895 5895 5894 5894 5893 5893 5893 5893 5893 5893 5893 5893 5893 5893 5894 5894
5906 5906 5905 5904 5903 5902 5901 5900 5899 5898 5898 5897 5897 5896 5896 5896 5896 5895 5895 5895 5895 5895 5895 5895 5895 5895 5894 5894 5894 5893 5893 5893 5893 5892 5892 5892 5892 5892 5892 5892 5893 5893 5893
5905 5904 5903 5902 5901 5900 5899 5898 5897 5896 5896 5895 5894 5894 5894 5893 5893 5892 5892 5892 5892 5892 5892 5892 5892 5892 5892 5892 5892 5892 5892 5891 5891 5891 5891 5891 5891 5891 5891 5891 5891 5891 5892
5904 5903 5902 5900 5899 5898 5897 5896 5895 5894 5893 5892 5892 5891 5890 5890 5890 5889 5889 5889 5889 5888 5889 5889 5889 5889 5889 5889 5889 5889 5889 5889 5889 5889 5889 5888 5889 5889 5889 5889 5890 5890 5890
5902 5901 5900 5899 5897 5896 5895 5894 5893 5891 5890 5889 5889 5888 5887 5886 5886 5885 5885 5885 5885 5885 5885 5885 5885 5885 5885 5885 5886 5886 5886 5886 5886 5885 5885 5886 5886 5886 5886 5887 5887 5888 5888
5900 5899 5898 5896 5895 5894 5892 5891 5890 5888 5887 5886 5885 5884 5883 5882 5882 5881 5881 5881 5881 5881 5881 5880 5880 5880 5881 5881 5881 5881 5882 5882 5882 5882 5882 5882 5882 5883 5883 5884 5884 5885 5886
5897 5896 5895 5894 5892 5891 5889 5888 5886 5884 5883 5881 5880 5879 5878 5878 5877 5876 5876 5876 5875 5876 5876 5876 5875 5876 5876 5876 5876 5876 5877 5877 5878 5878 5878 5878 5878 5879 5879 5880 5881 5882 5882
5894 5893 5891 5890 5888 5886 5885 5883 5881 5879 5877 5876 5874 5873 5872 5872 5871 5871 5870 5870 5870 5870 5870 5870 5870 5870 5871 5871 5871 5871 5872 5872 5873 5873 5874 5874 5874 5874 5875 5875 5876 5877 5878
5890 5888 5886 5885 5883 5880 5879 5877 5875 5873 5870 5868 5867 5866 5866 5865 5864 5864 5864 5863 5863 5864 5864 5865 5865 5865 5865 5865 5866 5866 5866 5867 5867 5868 5868 5869 5869 5869 5869 5870 5871 5872 5873
5885 5883 5881 5879 5877 5874 5872 5870 5868 5865 5862 5860 5859 5858 5857 5857 5857 5857 5857 5857 5857 5857 5858 5858 5859 5859 5859 5860 5860 5861 5861 5862 5862 5863 5863 5864 5864 5864 5864 5865 5866 5867 5868
5879 5877 5875 5872 5870 5867 5865 5863 5860 5858 5855 5851 5850 5848 5847 5847 5848 5849 5849 5849 5850 5850 5851 5852 5853 5853 5854 5854 5855 5855 5856 5857 5857 5858 5858 5858 5859 5859 5860 5860 5861 5861 5862
5873 5871 5868 5865 5862 5859 5857 5855 5852 5849 5845 5842 5840 5838 5837 5837 5838 5839 5840 5841 5842 5843 5844 5845 5846 5847 5847 5848 5849 5849 5850 5851 5852 5852 5853 5853 5854 5854 5855 5856 5856 5856 5857
5867 5864 5861 5858 5855 5852 5849 5846 5843 5839 5836 5833 5829 5827 5826 5826 5827 5830 5832 5833 5834 5835 5837 5838 5840 5840 5841 5842 5843 5843 5844 5845 5846 5847 5848 5849 5849 5850 5850 5851 5851 5851 5852
5860 5857 5854 5851 5848 5845 5841 5837 5833 5830 5827 5823 5819 5816 5815 5816 5817 5820 5823 5825 5827 5828 5830 5832 5833 5834 5835 5836 5837 5838 5839 5840 5841 5842 5843 5844 5844 5845 5845 5846 5846 5846 5847
5853 5850 5847 5843 5840 5837 5834 5831 5826 5822 5818 5815 5811 5808 5807 5807 5808 5812 5816 5818 5820 5822 5824 5825 5827 5828 5829 5830 5831 5832 5833 5835 5836 5837 5838 5839 5840 5840 5841 5841 5841 5841 5841
5845 5843 5839 5835 5832 5829 5826 5823 5819 5815 5811 5809 5805 5802 5801 5801 5803 5805 5809 5812 5813 5815 5817 5819 5820 5822 5823 5824 5825 5827 5828 5830 5831 5833 5834 5835 5836 5837 5837 5837 5837 5837 5836
5838 5835 5832 5828 5825 5822 5819 5816 5813 5809 5806 5803 5802 5799 5798 5798 5798 5801 5803 5805 5807 5808 5810 5812 5814 5815 5817 5818 5820 5821 5823 5825 5826 5828 5830 5831 5832 5832 5833 5833 5833 5832 5832
5829 5826 5823 5820 5817 5815 5812 5809 5807 5804 5802 5800 5798 5797 5796 5795 5795 5796 5798 5799 5800 5802 5804 5805 5807 5808 5810 5812 5813 5815 5817 5820 5821 5823 5824 5826 5827 5828 5828 5828 5828 5827 5827
5821 5817 5815 5812 5809 5807 5804 5802 5800 5798 5796 5795 5793 5792 5792 5791 5790 5790 5791 5792 5794 5795 5796 5798 5799 5801 5803 5805 5807 5809 5811 5813 5815 5817 5819 5820 5822 5822 5823 5823 5823 5822 5821
5812 5809 5806 5803 5800 5798 5796 5794 5792 5791 5789 5788 5787 5787 5786 5785 5784 5784 5785 5785 5787 5788 5789 5790 5791 5793 5795 5797 5800 5802 5804 5806 5808 5810 5813 5815 5816 5816 5817 5817 5817 5817 5816
5803 5800 5797 5794 5791 5789 5787 5785 5783 5782 5781 5780 5779 5779 5778 5778 5777 5777 5777 5778 5779 5780 5780 5781 5783 5784 5787 5789 5792 5794 5796 5798 5800 5803 5805 5808 5809 5810 5811 5811 5811 5811 5810
5795 5792 5788 5785 5782 5779 5776 5774 5772 5771 5770 5769 5768 5768 5768 5767 5767 5767 5768 5768 5769 5770 5771 5772 5774 5776 5778 5780 5783 5786 5788 5791 5793 5796 5798 5799 5802 5803 5804 5805 5805 5805 5804